Regional Weather Roundup
Issued by NWS Jackson, KY

Home | Current Version | Previous Version | Graphics & Text | Print | Product List | Glossary On
Versions: 1 2 3 4 5 6 7 8 9 10 11 12 13 14 15 16 17 18 19 20 21 22 23 24 25 26 27 28 29 30 31 32 33 34 35 36 37 38 39 40 41 42 43 44 45 46 47 48 49 50
000
ASUS43 KJKL 010905
RWRJKL

EAST KENTUCKY HOURLY WEATHER ROUNDUP
NATIONAL WEATHER SERVICE JACKSON KY
400 AM EST SUN FEB 01 2015

NOTE: "FAIR" INDICATES FEW OR NO CLOUDS BELOW 12,000 FEET WITH
NO SIGNIFICANT WEATHER AND/OR OBSTRUCTIONS TO VISIBILITY.

* THESE REPORTS ARE NOT UNDER NWS QUALITY CONTROL AND MAY NOT
  REPORT WEATHER SUCH AS PRECIPITATION AND FOG.

KYZ079-080-083-085-087-088-110-112-115-119-120-011000
...EASTERN KENTUCKY...

CITY           SKY/WX    TMP DP  RH WIND       PRES   REMARKS
JACKSON        CLOUDY    36  12  37 CALM      30.16F
LONDON         CLOUDY    37  17  44 CALM      30.16F
SOMERSET*      CLOUDY    36  18  48 CALM      30.17F
MONTICELLO*    CLOUDY    42  10  27 SE7       30.16F
MIDDLESBORO*   CLOUDY    35  26  68 W9        30.21R WCI  28
HARLAN APT*    PTSUNNY   34  19  55 NE6       30.17S WCI  29
BLACK MTN*       N/A     36   1  23 S6          N/A  WCI  31
PIKEVILLE APT* CLOUDY    32  18  55 CALM      30.16F
BIG SANDY*     CLOUDY    35  17  49 S3        30.17S
MOREHEAD APT*  CLOUDY    34  19  55 CALM      30.20F
$$

KYZ035-036-041-042-044-050-067-078-099-011000
...CENTRAL KENTUCKY...

CITY           SKY/WX    TMP DP  RH WIND       PRES   REMARKS
MT STERLING*   CLOUDY    34  21  60 SE5       30.17F WCI  30
FLEMING/MASON* CLOUDY    32  24  72 SE3       30.19F
DANVILLE*      CLOUDY    32  25  74 CALM      30.16S
RICHMOND*      CLOUDY    34  18  51 CALM      30.16F
LEXINGTON      CLOUDY    35  20  54 VRB3      30.16F
FRANKFORT      MIX PCPN  34  25  69 S6        30.15F WCI  29
$$

KYZ091>093-OHZ055-061-077-WVZ005-015-034-035-042-011000
...SOUTHERN OHIO/WEST VIRGINIA...

CITY           SKY/WX    TMP DP  RH WIND       PRES   REMARKS
COVINGTON      CLOUDY    34  27  75 E7        30.12F WCI  28
COLUMBUS       FRZ RAIN  31  29  92 CALM      30.16F FOG
DAYTON         CLOUDY    33  31  92 SE3       30.13F FOG
WILMINGTON     CLOUDY    32  28  85 S3        30.15F
HUNTINGTON     CLOUDY    31  22  69 N3        30.18F
CHARLESTON     FLURRIES  30  23  75 E3        30.19F
PINEVILLE*     CLOUDY    31  26  80 MISG      30.23F
BECKLEY        CLOUDY    32  14  47 S5        30.16F WCI  27
BLUEFIELD      CLOUDY    36   9  32 CALM      30.15F
$$

VAZ002-007-008-TNZ017-027-036-066-071-011000
...SOUTHWEST VIRGINIA/EAST TENNESSEE...

CITY           SKY/WX    TMP DP  RH WIND       PRES   REMARKS
WISE*          CLOUDY    34  12  40 CALM      30.15F
JONESVILLE*    CLOUDY    32  23  69 CALM      30.20S
ABINGDON*      CLOUDY    36  15  43 CALM      30.17F
BRISTOL        CLOUDY    34  21  59 E6        30.18F WCI  29
KNOXVILLE      CLOUDY    36  26  67 CALM      30.19S
OAK RIDGE      CLOUDY    38  25  59 CALM      30.22R
CROSSVILLE     CLOUDY    43  15  32 S10G21    30.13F
NASHVILLE      CLOUDY    47  19  33 S9        30.09F
$$

...KEY TO REMARKS...
VSB - VISIBILITY IN MILES
WCI - WIND CHILL INDEX
HX  - HEAT INDEX

$$


USA.gov is the U.S. government's official web portal to all federal, state and local government web resources and services.